EW9596 Weather Reports


Display with metric or nautical units.
time (UTC)temp
F
wind
direction
speed
MPH
gust
MPH
rain 1hr
in
rain 24hr
in
rain mn
in
humidity
%
barometer
mb
20260504050503 45 161 0.0 0.0 0.00 0.00 0.00 65 1012.1
20260504050001 45 161 0.0 0.0 0.00 0.00 0.00 65 1012.1
20260504045602 45 161 0.0 0.0 0.00 0.00 0.00 65 1012.1
20260504045059 46 161 0.0 0.0 0.00 0.00 0.00 65 1012.1
20260504044559 46 161 0.0 0.0 0.00 0.00 0.00 64 1012.1
20260504044059 46 161 0.0 0.0 0.00 0.00 0.00 64 1012.1
20260504043557 46 161 0.0 0.0 0.00 0.00 0.00 64 1012.1
20260504043101 47 161 0.0 0.0 0.00 0.00 0.00 63 1012.1
20260504042555 47 161 0.0 0.0 0.00 0.00 0.00 63 1012.1
20260504042055 47 161 0.0 0.0 0.00 0.00 0.00 63 1012.1
20260504041553 47 161 0.0 0.0 0.00 0.00 0.00 63 1012.0
20260504041052 48 161 0.0 0.0 0.00 0.00 0.00 63 1012.0
20260504040552 48 161 0.0 0.0 0.00 0.00 0.00 63 1012.1
20260504040118 48 161 0.0 0.0 0.00 0.00 0.00 63 1012.1
20260504035549 48 161 0.0 0.0 0.00 0.00 0.00 62 1012.1
20260504035051 48 161 0.0 0.0 0.00 0.00 0.00 62 1012.0
20260504034550 49 161 0.0 0.0 0.00 0.00 0.00 62 1012.1
20260504034049 49 161 0.0 0.0 0.00 0.00 0.00 62 1012.0
20260504033549 49 161 0.0 0.0 0.00 0.00 0.00 62 1012.1
20260504033050 49 161 0.0 0.0 0.00 0.00 0.00 62 1012.2
20260504032549 49 161 0.0 0.0 0.00 0.00 0.00 62 1012.1
20260504032049 49 161 0.0 0.0 0.00 0.00 0.00 62 1012.2
20260504031556 49 161 0.0 0.0 0.00 0.00 0.00 61 1012.2
20260504031051 50 161 0.0 0.0 0.00 0.00 0.00 61 1012.1
20260504030548 50 161 0.0 0.0 0.00 0.00 0.00 61 1012.1
20260504030049 50 161 0.0 0.0 0.00 0.00 0.00 61 1012.1
20260504025549 50 161 0.0 0.0 0.00 0.00 0.00 61 1012.1
20260504025047 50 161 0.0 0.0 0.00 0.00 0.00 61 1012.2
20260504024549 50 161 0.0 0.0 0.00 0.00 0.00 60 1012.2
20260504024048 50 161 0.0 0.0 0.00 0.00 0.00 60 1012.2
20260504023546 50 161 0.0 0.0 0.00 0.00 0.00 60 1012.2
20260504023046 50 161 0.0 2.0 0.00 0.00 0.00 60 1012.3
20260504022546 50 161 1.0 3.0 0.00 0.00 0.00 60 1012.4
20260504022045 51 171 0.0 2.0 0.00 0.00 0.00 60 1012.3
20260504021545 51 172 0.0 0.0 0.00 0.00 0.00 59 1012.3
20260504021045 51 173 0.0 0.0 0.00 0.00 0.00 59 1012.4
20260504020545 51 162 0.0 0.0 0.00 0.00 0.00 58 1012.4
20260504015548 51 215 0.0 0.0 0.00 0.00 0.00 56 1012.3
20260504015045 51 215 0.0 0.0 0.00 0.00 0.00 55 1012.3
20260504014544 51 215 0.0 0.0 0.00 0.00 0.00 54 1012.2
20260504014043 52 215 0.0 0.0 0.00 0.00 0.00 54 1012.2
20260504013544 52 215 0.0 0.0 0.00 0.00 0.00 53 1012.1
20260504013045 52 215 0.0 0.0 0.00 0.00 0.00 53 1012.1
20260504012542 52 215 0.0 0.0 0.00 0.00 0.00 52 1012.1
20260504012044 52 215 0.0 0.0 0.00 0.00 0.00 51 1012.1
20260504011543 53 215 0.0 0.0 0.00 0.00 0.00 51 1012.0
20260504011041 53 215 0.0 0.0 0.00 0.00 0.00 50 1012.0
20260504010541 53 215 0.0 0.0 0.00 0.00 0.00 50 1012.0
20260504010045 53 215 0.0 0.0 0.00 0.00 0.00 49 1012.0
20260504005541 54 215 0.0 0.0 0.00 0.00 0.00 48 1011.9
20260504005045 54 215 0.0 0.0 0.00 0.00 0.00 48 1011.9
20260504004541 54 215 0.0 0.0 0.00 0.00 0.00 48 1011.8
20260504004043 54 215 0.0 0.0 0.00 0.00 0.00 47 1011.7
20260504003542 54 215 0.0 0.0 0.00 0.00 0.00 46 1011.7
20260504003041 55 215 0.0 2.0 0.00 0.00 0.00 46 1011.7
20260504002540 55 211 0.0 2.0 0.00 0.00 0.00 45 1011.6
20260504002041 55 209 0.0 1.0 0.00 0.00 0.00 46 1011.6
20260504001548 55 209 0.0 3.0 0.00 0.00 0.00 44 1011.5
20260504001040 56 209 0.0 3.0 0.00 0.00 0.00 44 1011.4
20260504000539 56 234 0.0 2.0 0.00 0.00 0.00 43 1011.3
20260504000039 56 234 0.0 3.0 0.00 0.00 0.00 43 1011.3
20260503235538 56 234 0.0 5.0 0.00 0.00 0.00 43 1011.2
20260503235043 56 225 0.0 5.0 0.00 0.00 0.00 42 1011.2
20260503234601 57 224 0.0 7.0 0.00 0.00 0.00 41 1011.2
20260503234043 57 202 2.0 7.0 0.00 0.00 0.00 40 1011.1
20260503233541 57 257 2.0 5.0 0.00 0.00 0.00 40 1011.1
20260503233045 57 257 1.0 7.0 0.00 0.00 0.00 40 1011.1
20260503232537 57 260 3.0 7.0 0.00 0.00 0.00 39 1011.1
20260503232037 57 216 2.0 7.0 0.00 0.00 0.00 40 1011.1
20260503231537 57 230 2.0 6.0 0.00 0.00 0.00 41 1011.1
20260503231037 57 237 1.0 4.0 0.00 0.00 0.00 41 1011.1
20260503230539 57 257 0.0 4.0 0.00 0.00 0.00 41 1011.1
20260503230040 56 246 1.0 11.0 0.00 0.00 0.00 41 1011.1
20260503225536 56 240 3.0 11.0 0.00 0.00 0.00 40 1011.1
20260503225035 57 272 3.0 9.0 0.00 0.00 0.00 39 1011.1
20260503224636 57 240 3.0 8.0 0.00 0.00 0.00 39 1011.1
20260503224034 57 256 2.0 8.0 0.00 0.00 0.00 41 1011.2
20260503223534 57 216 5.0 8.0 0.00 0.00 0.00 39 1011.2
20260503223034 57 259 0.0 2.0 0.00 0.00 0.00 41 1011.2
20260503222536 57 225 0.0 4.0 0.00 0.00 0.00 40 1011.2
20260503222035 57 223 0.0 4.0 0.00 0.00 0.00 40 1011.3
20260503221536 57 177 1.0 8.0 0.00 0.00 0.00 39 1011.2
20260503221034 57 267 3.0 8.0 0.00 0.00 0.00 39 1011.2
20260503220535 57 263 2.0 7.0 0.00 0.00 0.00 39 1011.3
20260503220032 57 236 4.0 7.0 0.00 0.00 0.00 39 1011.4
20260503215531 57 218 1.0 6.0 0.00 0.00 0.00 40 1011.4
20260503215033 56 227 3.0 7.0 0.00 0.00 0.00 40 1011.5
20260503214531 56 225 1.0 7.0 0.00 0.00 0.00 40 1011.5
20260503214031 56 271 2.0 8.0 0.00 0.00 0.00 40 1011.5
20260503213531 56 224 1.0 8.0 0.00 0.00 0.00 40 1011.5
20260503213033 57 248 2.0 10.0 0.00 0.00 0.00 40 1011.5
20260503212529 57 255 4.0 10.0 0.00 0.00 0.00 40 1011.5
20260503212028 57 252 2.0 8.0 0.00 0.00 0.00 41 1011.5
20260503211529 57 293 3.0 10.0 0.00 0.00 0.00 41 1011.5
20260503211030 57 328 4.0 10.0 0.00 0.00 0.00 41 1011.6
20260503210528 57 226 3.0 11.0 0.00 0.00 0.00 40 1011.6
20260503210028 57 248 5.0 12.0 0.00 0.00 0.00 41 1011.6
20260503205528 57 251 4.0 12.0 0.00 0.00 0.00 41 1011.7
20260503205027 57 273 6.0 13.0 0.00 0.00 0.00 41 1011.8
20260503204528 56 211 6.0 17.0 0.00 0.00 0.00 41 1011.9
20260503204026 56 231 9.0 20.0 0.00 0.00 0.00 39 1011.7
20260503203527 57 265 7.0 20.0 0.00 0.00 0.00 39 1011.7
20260503203126 57 223 5.0 10.0 0.00 0.00 0.00 39 1011.7
20260503202526 57 282 4.0 11.0 0.00 0.00 0.00 39 1011.7
20260503202030 57 291 5.0 15.0 0.00 0.00 0.00 38 1011.7
20260503201527 57 276 4.0 15.0 0.00 0.00 0.00 37 1011.6
20260503201026 57 242 5.0 14.0 0.00 0.00 0.00 36 1011.8
20260503200526 58 227 6.0 14.0 0.00 0.00 0.00 35 1011.7
20260503200028 58 232 6.0 14.0 0.00 0.00 0.00 34 1011.6
20260503195525 58 239 7.0 14.0 0.00 0.00 0.00 34 1011.6
20260503195027 58 242 4.0 15.0 0.00 0.00 0.00 37 1011.7
20260503194525 57 194 6.0 13.0 0.00 0.00 0.00 35 1011.7
20260503194023 57 290 8.0 19.0 0.00 0.00 0.00 33 1011.8
20260503193525 57 220 8.0 19.0 0.00 0.00 0.00 34 1012.0
20260503193022 57 257 7.0 15.0 0.00 0.00 0.00 34 1011.9
20260503192521 57 205 6.0 16.0 0.00 0.00 0.00 34 1012.0
20260503192022 58 264 7.0 14.0 0.00 0.00 0.00 32 1012.0
20260503191528 58 317 5.0 18.0 0.00 0.00 0.00 33 1012.0
20260503191021 58 284 5.0 18.0 0.00 0.00 0.00 32 1012.0
20260503190520 58 225 10.0 16.0 0.00 0.00 0.00 32 1012.2
20260503190020 58 259 9.0 14.0 0.00 0.00 0.00 31 1012.2
20260503185519 58 218 6.0 13.0 0.00 0.00 0.00 33 1012.2
20260503185018 58 246 7.0 17.0 0.00 0.00 0.00 34 1012.2
20260503184518 58 249 8.0 16.0 0.00 0.00 0.00 32 1012.3
20260503184017 58 283 6.0 16.0 0.00 0.00 0.00 35 1012.4
20260503183515 58 246 8.0 17.0 0.00 0.00 0.00 32 1012.3
20260503183017 57 271 8.0 23.0 0.00 0.00 0.00 34 1012.4
20260503182514 57 221 9.0 23.0 0.00 0.00 0.00 31 1012.6
20260503182014 57 271 7.0 12.0 0.00 0.00 0.00 33 1012.6
20260503181513 57 305 3.0 12.0 0.00 0.00 0.00 35 1012.7
20260503181012 56 217 7.0 14.0 0.00 0.00 0.00 34 1012.6
20260503180512 56 198 7.0 14.0 0.00 0.00 0.00 35 1012.8
20260503180012 56 283 5.0 11.0 0.00 0.00 0.00 34 1012.8
20260503175508 55 283 3.0 11.0 0.00 0.00 0.00 37 1012.9
20260503175007 55 257 6.0 16.0 0.00 0.00 0.00 35 1012.9
20260503174506 55 286 5.0 16.0 0.00 0.00 0.00 35 1013.1
20260503174005 55 261 7.0 14.0 0.00 0.00 0.00 38 1013.2
20260503173504 54 244 3.0 11.0 0.00 0.00 0.00 35 1013.3
20260503173003 54 324 4.0 10.0 0.00 0.00 0.00 37 1013.5
20260503172502 54 288 3.0 10.0 0.00 0.00 0.00 38 1013.5
20260503172002 54 258 4.0 8.0 0.00 0.00 0.00 36 1013.5
20260503171502 54 265 3.0 12.0 0.00 0.00 0.00 36 1013.6
20260503171003 54 284 4.0 13.0 0.00 0.00 0.00 35 1013.6
20260503170503 54 313 4.0 13.0 0.00 0.00 0.00 39 1013.7
20260503150548 52 251 3.0 12.0 0.00 0.00 0.00 36 1014.7
20260503131028 46 273 4.0 14.0 0.00 0.00 0.00 52 1014.9
20260503130527 46 259 3.0 14.0 0.00 0.00 0.00 54 1015.0
20260503110507 38 235 1.0 4.0 0.00 0.00 0.00 78 1014.8
20260503090506 38 215 0.0 2.0 0.00 0.00 0.00 77 1014.1
20260503081501 38 181 0.0 5.0 0.00 0.00 0.00 77 1014.1
20260503081003 38 162 0.0 5.0 0.00 0.00 0.00 77 1014.1
20260503080601 38 147 0.0 3.0 0.00 0.00 0.00 77 1014.1
20260503072556 38 270 0.0 0.0 0.00 0.00 0.00 75 1014.0
20260503072055 38 270 0.0 0.0 0.00 0.00 0.00 75 1014.1
20260503071612 38 270 0.0 0.0 0.00 0.00 0.00 74 1014.0
20260503071055 38 270 0.0 0.0 0.00 0.00 0.00 74 1014.0
20260503070558 38 270 0.0 0.0 0.00 0.00 0.00 73 1014.0
20260503060108 39 270 0.0 0.0 0.00 0.00 0.00 71 1014.3
20260503055047 39 271 0.0 0.0 0.00 0.00 0.00 71 1014.4
20260503054557 39 271 0.0 0.0 0.00 0.00 0.00 70 1014.3
20260503054047 39 271 0.0 0.0 0.00 0.00 0.00 70 1014.4